Weather History for Waseca, MN

Change the Weather History Date:

Wednesday, May 13, 2009

  Actual Average Record
Temperature  
Mean Temperature 62 °F -  
Max Temperature 71 °F 67 °F 89 °F (2007)
Min Temperature 53 °F 43 °F 24 °F (1918)
Degree Days  
Heating Degree Days 3    
Growing Degree Days 12 (Base 50)    
Moisture  
Dew Point 55 °F    
Average Humidity 81    
Maximum Humidity 100    
Minimum Humidity 34    
Precipitation  
Precipitation 0.00 in - - ()
Sea Level Pressure  
Sea Level Pressure 29.61 in    
Wind  
Wind Speed 17 mph (SSW)    
Max Wind Speed 23 mph    
Max Gust Speed 48 mph    
Visibility 8 miles    
Events Rain    
Averages and records for this station are not official NWS values.
T = Trace of Precipitation, MM = Missing Value Source: NWS Daily Summary

Daily Weather History Graph

Daily Weather History Graph

Search for Another Location

Airport:

Trip Planner

Search our weather history database for the weather conditions in past years. The results will help you decide how hot, cold, wet, or windy it might be!

Date:

Astronomy

May. 13, 2009 Rise Set
Actual Time 5:49 AM CDT 8:31 PM CDT
Civil Twilight 5:16 AM CDT 9:05 PM CDT
Nautical Twilight 4:34 AM CDT 9:47 PM CDT
Astronomical Twilight 3:46 AM CDT 10:35 PM CDT
Moon 12:14 AM CDT (5/13) 8:56 AM CDT (5/13)
Length of Visible Light 15h 48m
Length of Day
14h 42m
Waning Gibbous, 82% of the Moon is Illuminated
May 13
Waning Gibbous
May 17
Last Quarter
May 24
New
May 30
First Quarter
Jun 7
Full

Hourly Weather History & Observations

Time (CDT) Temp. Dew Point Humidity Pressure Visibility Wind Dir Wind Speed Gust Speed Precip Events Conditions
12:17 AM 55.4 °F 53.6 °F 94% 29.68 in 7.0 mi SE 23.0 mph 31.1 mph N/A   Overcast
12:37 AM 55.4 °F 53.6 °F 94% 29.67 in 7.0 mi SE 21.9 mph 34.5 mph N/A   Overcast
12:57 AM 55.4 °F 53.6 °F 94% 29.67 in 5.0 mi SSE 20.7 mph 27.6 mph N/A   Overcast
1:17 AM 55.4 °F 53.6 °F 94% 29.67 in 3.0 mi SE 17.3 mph 25.3 mph N/A Rain Light Rain
1:37 AM 53.6 °F 51.8 °F 94% 29.66 in 4.0 mi SE 16.1 mph 21.9 mph N/A   Overcast
1:57 AM 53.6 °F 53.6 °F 100% 29.67 in 4.0 mi SSE 17.3 mph 24.2 mph N/A   Overcast
2:17 AM 55.4 °F 55.4 °F 100% 29.66 in 4.0 mi SSE 19.6 mph 27.6 mph N/A   Overcast
2:37 AM 55.4 °F 55.4 °F 100% 29.65 in 4.0 mi SSE 17.3 mph 27.6 mph N/A Rain Light Rain
2:57 AM 55.4 °F 55.4 °F 100% 29.65 in 4.0 mi SSE 16.1 mph 23.0 mph N/A   Overcast
3:17 AM 55.4 °F 53.6 °F 94% 29.63 in 4.0 mi SSE 12.7 mph 21.9 mph N/A   Overcast
3:37 AM 53.6 °F 53.6 °F 100% 29.61 in 5.0 mi SSE 16.1 mph 20.7 mph N/A   Overcast
3:57 AM 55.4 °F 53.6 °F 94% 29.62 in 7.0 mi SSE 16.1 mph 26.5 mph N/A   Overcast
4:17 AM 55.4 °F 55.4 °F 100% 29.64 in 4.0 mi SSE 18.4 mph 26.5 mph N/A   Overcast
4:37 AM 55.4 °F 53.6 °F 94% 29.64 in 3.0 mi SSE 17.3 mph 26.5 mph N/A   Overcast
4:57 AM 55.4 °F 53.6 °F 94% 29.63 in 5.0 mi SSE 15.0 mph 24.2 mph N/A   Overcast
5:17 AM 55.4 °F 53.6 °F 94% 29.61 in 5.0 mi SSE 13.8 mph 20.7 mph N/A   Overcast
5:37 AM 55.4 °F 55.4 °F 100% 29.62 in 10.0 mi SSE 19.6 mph 26.5 mph N/A   Overcast
5:57 AM 55.4 °F 55.4 °F 100% 29.63 in 10.0 mi South 18.4 mph 24.2 mph N/A   Light Drizzle
6:17 AM 55.4 °F 55.4 °F 100% 29.62 in 5.0 mi SSE 15.0 mph - N/A   Overcast
6:37 AM 55.4 °F 55.4 °F 100% 29.62 in 4.0 mi SSE 16.1 mph - N/A   Overcast
6:57 AM 55.4 °F 55.4 °F 100% 29.61 in 5.0 mi South 18.4 mph - N/A   Overcast
7:17 AM 55.4 °F 55.4 °F 100% 29.59 in 5.0 mi SSE 20.7 mph 24.2 mph N/A   Overcast
7:37 AM 57.2 °F 55.4 °F 94% 29.59 in 7.0 mi South 21.9 mph 27.6 mph N/A   Overcast
7:57 AM 59.0 °F 55.4 °F 88% 29.58 in 7.0 mi South 19.6 mph 27.6 mph N/A   Overcast
8:17 AM 59.0 °F 57.2 °F 94% 29.59 in 10.0 mi South 11.5 mph 15.0 mph N/A   Mostly Cloudy
8:37 AM 59.0 °F 57.2 °F 94% 29.58 in 10.0 mi South 8.1 mph - N/A   Overcast
8:57 AM 59.0 °F 57.2 °F 94% 29.59 in 10.0 mi South 8.1 mph - N/A   Mostly Cloudy
9:17 AM 60.8 °F 59.0 °F 94% 29.60 in 10.0 mi WSW 6.9 mph - N/A   Scattered Clouds
9:37 AM 62.6 °F 59.0 °F 88% 29.60 in 10.0 mi WSW 5.8 mph - N/A   Overcast
9:57 AM 62.6 °F 59.0 °F 88% 29.59 in 10.0 mi SW 8.1 mph - N/A   Overcast
10:17 AM 62.6 °F 59.0 °F 88% 29.58 in 10.0 mi SSW 9.2 mph - N/A   Overcast
10:37 AM 64.4 °F 59.0 °F 83% 29.59 in 10.0 mi WSW 10.4 mph - N/A   Overcast
10:57 AM 64.4 °F 59.0 °F 83% 29.59 in 10.0 mi WSW 9.2 mph - N/A   Overcast
11:17 AM 64.4 °F 57.2 °F 77% 29.60 in 10.0 mi SW 8.1 mph - N/A   Overcast
11:37 AM 64.4 °F 59.0 °F 83% 29.59 in 10.0 mi SW 8.1 mph - N/A   Overcast
11:57 AM 68.0 °F 59.0 °F 73% 29.59 in 10.0 mi SW 9.2 mph - N/A   Overcast
12:17 PM 69.8 °F 60.8 °F 73% 29.61 in 10.0 mi SSW 12.7 mph 16.1 mph N/A   Overcast
12:37 PM 68.0 °F 59.0 °F 73% 29.60 in 10.0 mi SSW 10.4 mph - N/A   Overcast
12:57 PM 71.6 °F 60.8 °F 69% 29.59 in 10.0 mi SW 11.5 mph - N/A   Mostly Cloudy
1:17 PM 69.8 °F 59.0 °F 68% 29.58 in 10.0 mi SW 8.1 mph - N/A   Overcast
1:37 PM 69.8 °F 59.0 °F 68% 29.58 in 10.0 mi West 11.5 mph - N/A   Overcast
1:57 PM 62.6 °F 60.8 °F 94% 29.59 in 4.0 mi WSW 11.5 mph 17.3 mph N/A Rain Rain
2:17 PM 64.4 °F 60.8 °F 88% 29.59 in 10.0 mi West 13.8 mph - N/A   Mostly Cloudy
2:37 PM 68.0 °F 60.8 °F 78% 29.59 in 10.0 mi West 12.7 mph - N/A   Mostly Cloudy
2:57 PM 68.0 °F 57.2 °F 68% 29.58 in 10.0 mi NW 12.7 mph 16.1 mph N/A   Overcast
3:17 PM 68.0 °F 53.6 °F 60% 29.59 in 10.0 mi NW 15.0 mph - N/A   Overcast
3:37 PM 69.8 °F 55.4 °F 60% 29.59 in 10.0 mi NW 15.0 mph 20.7 mph N/A   Scattered Clouds
3:57 PM 68.0 °F 51.8 °F 56% 29.58 in 10.0 mi WNW 16.1 mph - N/A   Scattered Clouds
4:17 PM 68.0 °F 53.6 °F 60% 29.58 in 10.0 mi WNW 16.1 mph 19.6 mph N/A   Scattered Clouds
4:37 PM 68.0 °F 51.8 °F 56% 29.58 in 10.0 mi WNW 18.4 mph 21.9 mph N/A   Clear
4:57 PM 69.8 °F 51.8 °F 53% 29.59 in 10.0 mi West 16.1 mph 25.3 mph N/A   Clear
5:17 PM 69.8 °F 50.0 °F 49% 29.59 in 10.0 mi West 17.3 mph 25.3 mph N/A   Clear
5:37 PM 71.6 °F 46.4 °F 41% 29.57 in 10.0 mi West 20.7 mph 27.6 mph N/A   Clear
5:57 PM 68.0 °F 44.6 °F 43% 29.57 in 10.0 mi West 12.7 mph - N/A   Clear
6:17 PM 69.8 °F 44.6 °F 40% 29.59 in 10.0 mi West 18.4 mph 23.0 mph N/A   Clear
6:37 PM 64.4 °F 42.8 °F 45% 29.60 in 10.0 mi West 17.3 mph 24.2 mph N/A   Clear
6:57 PM 64.4 °F 35.6 °F 34% 29.60 in 7.0 mi West 21.9 mph 48.3 mph N/A   Mostly Cloudy
7:17 PM 64.4 °F 37.4 °F 37% 29.60 in 10.0 mi West 21.9 mph 27.6 mph N/A   Mostly Cloudy
7:37 PM 62.6 °F 33.8 °F 34% 29.62 in 10.0 mi WNW 29.9 mph 44.9 mph N/A   Scattered Clouds
7:57 PM 62.6 °F 32.0 °F 32% 29.63 in 10.0 mi West 24.2 mph 35.7 mph N/A   Scattered Clouds
8:17 PM 62.6 °F 32.0 °F 32% 29.64 in 10.0 mi WNW 28.8 mph 40.3 mph N/A   Scattered Clouds
8:37 PM 59.0 °F 32.0 °F 36% 29.64 in 10.0 mi WNW 23.0 mph 28.8 mph N/A   Clear
8:58 PM 57.2 °F 30.2 °F 36% 29.64 in 10.0 mi West 20.7 mph 25.3 mph N/A   Clear
9:17 PM 55.4 °F 30.2 °F 38% 29.65 in 10.0 mi West 17.3 mph - N/A   Clear
9:37 PM 55.4 °F 32.0 °F 41% 29.66 in 10.0 mi West 16.1 mph 20.7 mph N/A   Clear
9:58 PM 55.4 °F 32.0 °F 41% 29.68 in 10.0 mi West 19.6 mph 25.3 mph N/A   Clear
10:17 PM 55.4 °F 32.0 °F 41% 29.69 in 10.0 mi West 18.4 mph - N/A   Clear
10:37 PM 53.6 °F 32.0 °F 44% 29.70 in 10.0 mi West 13.8 mph 24.2 mph N/A   Clear
10:57 PM 51.8 °F 32.0 °F 47% 29.71 in 10.0 mi West 12.7 mph - N/A   Clear
11:17 PM 51.8 °F 32.0 °F 47% 29.71 in 10.0 mi West 15.0 mph 20.7 mph N/A   Clear
11:37 PM 51.8 °F 33.8 °F 50% 29.72 in 10.0 mi West 16.1 mph 21.9 mph N/A   Clear
11:57 PM 51.8 °F 33.8 °F 50% 29.73 in 10.0 mi West 17.3 mph 24.2 mph N/A   Clear